カタログに戻る

STARLINK-4397

運用中通信SSO
NORAD 53205·PAYLOAD·🇺🇸 United States

打ち上げ Jul 22, 2022 から Vandenberg Space Force Base

Loading…

次のパス (今後24時間)

TLE

最新Source: CelesTrak SupGP

元期: Sep 14, 2026, 21:16 UTC

1 53205C 22084S   26257.88659722 -.00023219  00000+0 -72096-3 0  2572
2 53205  97.2843 313.7000 0001475  91.8919 135.2846 15.33442893    10

AllMySatでSTARLINK-4397をリアルタイム追跡

Download on the App Store